Weather History for Fort Hood, TX

Change the Weather History Date:

Tuesday, March 12, 2013

  Actual Average Record
Temperature  
Mean Temperature 58 °F -  
Max Temperature 77 °F 66 °F 82 °F (2005)
Min Temperature 39 °F 46 °F 30 °F (1998)
Degree Days  
Heating Degree Days 7    
Growing Degree Days 8 (Base 50)    
Moisture  
Dew Point 33 °F    
Average Humidity 42    
Maximum Humidity 70    
Minimum Humidity 22    
Precipitation  
Precipitation 0.00 in - - ()
Sea Level Pressure  
Sea Level Pressure 30.12 in    
Wind  
Wind Speed 11 mph (SE)    
Max Wind Speed 20 mph    
Max Gust Speed 26 mph    
Visibility 7 miles    
Events      
Averages and records for this station are not official NWS values.
T = Trace of Precipitation, MM = Missing Value Source: NWS Daily Summary

Daily Weather History Graph

Daily Weather History Graph

Search for Another Location

Airport:

Trip Planner

Search our weather history database for the weather conditions in past years. The results will help you decide how hot, cold, wet, or windy it might be!

Date:

Astronomy

Mar. 12, 2013 Rise Set
Actual Time 7:44 AM CDT 7:37 PM CDT
Civil Twilight 7:20 AM CDT 8:01 PM CDT
Nautical Twilight 6:52 AM CDT 8:29 PM CDT
Astronomical Twilight 6:24 AM CDT 8:58 PM CDT
Moon 7:58 AM CDT (3/12) 8:45 PM CDT (3/12)
Length of Visible Light 12h 41m
Length of Day
11h 53m
New Moon, 1% of the Moon is Illuminated
Mar 12
New Moon
Mar 19
First Quarter
Mar 27
Full
Apr 2
Last Quarter
Apr 10
New

Hourly Weather History & Observations

Time (CDT) Temp. Windchill Dew Point Humidity Pressure Visibility Wind Dir Wind Speed Gust Speed Precip Events Conditions
12:55 AM 46.4 °F 41.9 °F 30.2 °F 53% 30.08 in 7.0 mi SSE 9.2 mph - N/A   Clear
1:55 AM 44.6 °F 40.2 °F 30.2 °F 57% 30.09 in 7.0 mi SSE 8.1 mph - N/A   Clear
2:55 AM 42.8 °F 38.0 °F 30.2 °F 61% 30.08 in 7.0 mi SSE 8.1 mph - N/A   Clear
3:55 AM 42.8 °F 37.5 °F 30.2 °F 61% 30.07 in 7.0 mi SSE 9.2 mph - N/A   Clear
4:55 AM 42.8 °F 37.5 °F 30.2 °F 61% 30.06 in 7.0 mi SSE 9.2 mph - N/A   Clear
5:55 AM 41.0 °F 34.7 °F 30.2 °F 65% 30.07 in 7.0 mi SSE 10.4 mph - N/A   Clear
6:55 AM 39.2 °F 32.5 °F 30.2 °F 70% 30.09 in 7.0 mi SSE 10.4 mph - N/A   Clear
7:55 AM 39.2 °F 33.0 °F 28.4 °F 65% 30.11 in 7.0 mi SSE 9.2 mph - N/A   Clear
8:55 AM 48.2 °F - 28.4 °F 46% 30.12 in 7.0 mi South 13.8 mph - N/A   Clear
9:55 AM 53.6 °F - 30.2 °F 41% 30.14 in 7.0 mi South 15.0 mph - N/A   Clear
10:55 AM 60.8 °F - 28.4 °F 29% 30.15 in 7.0 mi South 19.6 mph 26.5 mph N/A   Clear
11:55 AM 64.4 °F - 33.8 °F 32% 30.15 in 7.0 mi South 19.6 mph 25.3 mph N/A   Clear
12:55 PM 69.8 °F - 39.2 °F 33% 30.14 in 7.0 mi SSE 18.4 mph - N/A   Clear
1:55 PM 73.4 °F - 35.6 °F 25% 30.12 in 7.0 mi South 12.7 mph - N/A   Partly Cloudy
2:55 PM 73.4 °F - 35.6 °F 25% 30.10 in 7.0 mi South 12.7 mph 19.6 mph N/A   Clear
3:55 PM 75.2 °F - 35.6 °F 24% 30.08 in 7.0 mi SSE 15.0 mph 26.5 mph N/A   Clear
4:55 PM 77.0 °F - 37.4 °F 24% 30.07 in 7.0 mi SSE 11.5 mph 16.1 mph N/A   Clear
5:55 PM 77.0 °F - 35.6 °F 22% 30.07 in 7.0 mi SE 9.2 mph - N/A   Clear
6:55 PM 73.4 °F - 37.4 °F 27% 30.09 in 7.0 mi East 15.0 mph - N/A   Clear
7:55 PM 66.2 °F - 37.4 °F 35% 30.14 in 7.0 mi NE 12.7 mph - N/A   Clear
8:55 PM 62.6 °F - 37.4 °F 39% 30.20 in 7.0 mi NE 12.7 mph - N/A   Clear
9:55 PM 60.8 °F - 35.6 °F 39% 30.24 in 7.0 mi NE 10.4 mph - N/A   Clear
10:55 PM 57.2 °F - 35.6 °F 44% 30.15 in 7.0 mi NE 9.2 mph - N/A   Clear
11:55 PM 57.2 °F - 33.8 °F 41% 30.18 in 7.0 mi NNE 13.8 mph - N/A   Clear